Change the Weather History Date:

Tuesday, January 14, 2014

  Actual Average Record
Temperature  
Mean Temperature 40 °F 11 °F  
Max Temperature 44 °F 22 °F 58 °F (2005)
Min Temperature 35 °F 1 °F -34 °F (1957)
Degree Days  
Heating Degree Days 25 54  
Month to date heating degree days 714 738  
Since 1 July heating degree days 4276 4258  
Cooling Degree Days 0 0  
Month to date cooling degree days 0 0  
Year to date cooling degree days 0 0  
Moisture  
Dew Point 38 °F    
Average Humidity 91    
Maximum Humidity 100    
Minimum Humidity 82    
Precipitation  
Precipitation 0.75 in 0.09 in 1.64 in (2006)
Month to date precipitation 3.16 1.28  
Year to date precipitation 3.16 1.28  
Sea Level Pressure  
Sea Level Pressure 29.68 in    
Wind  
Wind Speed 7 mph (SSW)    
Max Wind Speed 14 mph    
Max Gust Speed 22 mph    
Visibility 4 miles    
Events Fog , Rain    
T = Trace of Precipitation, MM = Missing Value Source: NWS Daily Summary

Daily Weather History Graph

Daily Weather History Graph

Search for Another Location

Airport or City:

Trip Planner

Search our weather history database for the weather conditions in past years. The results will help you decide how hot, cold, wet, or windy it might be!

Date:

Astronomy

Jan. 14, 2014 Rise Set
Actual Time 7:10 AM EST 4:10 PM EST
Civil Twilight 6:36 AM EST 4:44 PM EST
Nautical Twilight 5:59 AM EST 5:21 PM EST
Astronomical Twilight 5:23 AM EST 5:57 PM EST
Moon 3:14 PM EST (1/14) 5:40 AM EST (1/14)
Length of Visible Light 10h 08m
Length of Day
9h 00m
Waxing Gibbous, 98% of the Moon is Illuminated
Jan 14
Waxing Gibbous
Jan 15
Full
Jan 24
Last Quarter
Jan 30
New
Feb 6
First Quarter

Hourly Weather History & Observations

Time (EST) Temp. Windchill Dew Point Humidity Pressure Visibility Wind Dir Wind Speed Gust Speed Precip Events Conditions
12:53 AM 36.0 °F 28.0 °F 32.0 °F 86% 29.83 in 10.0 mi South 11.5 mph - N/A   Overcast
1:53 AM 37.9 °F 31.5 °F 32.0 °F 79% 29.82 in 10.0 mi South 9.2 mph 20.7 mph N/A   Clear
2:53 AM 37.9 °F 32.7 °F 34.0 °F 86% 29.78 in 10.0 mi South 6.9 mph - N/A   Overcast
3:35 AM 39.9 °F 32.9 °F 35.1 °F 83% 29.77 in 10.0 mi South 11.5 mph 17.3 mph N/A   Mostly Cloudy
3:53 AM 39.9 °F 32.9 °F 36.0 °F 86% 29.78 in 10.0 mi South 11.5 mph 20.7 mph N/A   Overcast
4:37 AM 41.0 °F 35.8 °F 37.0 °F 86% 29.76 in 10.0 mi South 8.1 mph - N/A   Overcast
4:53 AM 41.0 °F 34.3 °F 37.0 °F 86% 29.78 in 10.0 mi South 11.5 mph 17.3 mph N/A   Overcast
5:53 AM 43.0 °F 36.8 °F 37.9 °F 82% 29.75 in 10.0 mi SSW 11.5 mph 18.4 mph N/A   Overcast
6:53 AM 43.0 °F 37.2 °F 37.9 °F 82% 29.74 in 10.0 mi South 10.4 mph - N/A   Overcast
7:53 AM 43.0 °F 38.2 °F 37.9 °F 82% 29.76 in 10.0 mi SSW 8.1 mph - N/A   Overcast
8:53 AM 43.0 °F 37.7 °F 39.9 °F 89% 29.76 in 8.0 mi SSW 9.2 mph - 0.00 in Rain Light Rain
9:20 AM 44.1 °F 38.1 °F 41.0 °F 89% 29.75 in 6.0 mi South 11.5 mph - 0.00 in Rain Light Rain
9:32 AM 44.1 °F 39.5 °F 41.0 °F 89% 29.75 in 6.0 mi SSW 8.1 mph - 0.01 in Rain Light Rain
9:53 AM 44.1 °F 38.6 °F 41.0 °F 89% 29.77 in 5.0 mi SSW 10.4 mph - 0.01 in Rain Light Rain
10:53 AM 43.0 °F 38.8 °F 42.1 °F 97% 29.75 in 5.0 mi SSW 6.9 mph - 0.04 in Rain Light Rain
11:53 AM 44.1 °F 39.0 °F 42.1 °F 93% 29.72 in 7.0 mi SSW 9.2 mph - 0.01 in Rain Light Rain
12:53 PM 44.1 °F 39.5 °F 42.1 °F 93% 29.71 in 6.0 mi SSW 8.1 mph - 0.02 in Rain Light Rain
1:36 PM 44.1 °F 40.1 °F 42.1 °F 93% 29.71 in 6.0 mi SSW 6.9 mph - 0.01 in Rain Light Rain
1:53 PM 44.1 °F 40.8 °F 42.1 °F 93% 29.73 in 4.0 mi SSW 5.8 mph - 0.03 in Rain Light Rain
2:09 PM 44.1 °F 40.8 °F 42.1 °F 93% 29.71 in 5.0 mi SSW 5.8 mph - 0.01 in Rain Light Rain
2:38 PM 44.1 °F 40.8 °F 42.1 °F 93% 29.72 in 6.0 mi SSW 5.8 mph - 0.02 in Rain Light Rain
2:53 PM 44.1 °F 41.5 °F 42.1 °F 93% 29.75 in 4.0 mi SSW 4.6 mph - 0.04 in Rain Light Rain
3:53 PM 43.0 °F 41.3 °F 42.1 °F 97% 29.73 in 4.0 mi SSW 3.5 mph - 0.06 in Rain Light Rain
4:27 PM 43.0 °F 41.3 °F 42.1 °F 97% 29.71 in 6.0 mi South 3.5 mph - 0.01 in Rain Light Rain
4:37 PM 41.0 °F - 41.0 °F 100% 29.70 in 1.8 mi Calm Calm - 0.01 in Rain Light Rain
4:42 PM 39.9 °F - 39.9 °F 100% 29.70 in 0.8 mi Calm Calm - 0.01 in Rain Light Rain
4:53 PM 39.0 °F - 39.0 °F 100% 29.71 in 0.5 mi Calm Calm - 0.02 in Fog , Rain Light Rain
5:09 PM 39.0 °F - 39.0 °F 100% 29.69 in 0.5 mi Calm Calm - 0.01 in Fog , Rain Light Rain
5:11 PM 39.0 °F - 39.0 °F 100% 29.69 in 0.5 mi Calm Calm - 0.01 in Fog , Rain Light Rain
5:53 PM 39.0 °F - 37.9 °F 96% 29.69 in 0.5 mi Calm Calm - 0.05 in Fog , Rain Light Rain
6:26 PM 37.0 °F - 37.0 °F 100% 29.68 in 1.0 mi Calm Calm - 0.03 in Rain Light Rain
6:34 PM 37.0 °F - 36.0 °F 96% 29.68 in 0.8 mi Calm Calm - 0.04 in Rain Light Rain
6:53 PM 37.0 °F - 37.0 °F 100% 29.69 in 0.5 mi Calm Calm - 0.06 in Fog , Rain Light Rain
7:18 PM 37.0 °F - 37.0 °F 100% 29.66 in 0.8 mi Calm Calm - 0.04 in Rain Rain
7:29 PM 37.0 °F - 37.0 °F 100% 29.66 in 1.2 mi Calm Calm - 0.06 in Rain Light Rain
7:53 PM 37.0 °F - 36.0 °F 96% 29.67 in 0.8 mi Calm Calm - 0.09 in Rain Light Rain
8:08 PM 37.0 °F - 37.0 °F 100% 29.64 in 0.8 mi Calm Calm - 0.03 in Rain Rain
8:18 PM 37.0 °F - 37.0 °F 100% 29.64 in 0.8 mi Calm Calm - 0.04 in Rain Light Rain
8:37 PM 37.9 °F - 37.9 °F 100% 29.63 in 0.8 mi Calm Calm - 0.06 in Rain Light Rain
8:53 PM 37.9 °F 35.5 °F 37.9 °F 100% 29.65 in 0.5 mi NNE 3.5 mph - 0.08 in Fog , Rain Light Rain
9:03 PM 37.0 °F - 37.0 °F 100% 29.62 in 0.5 mi Calm Calm - 0.01 in Fog , Rain Light Rain
9:11 PM 37.9 °F - 37.0 °F 97% 29.62 in 0.5 mi Calm Calm - 0.02 in Fog , Rain Light Rain
9:53 PM 37.0 °F 33.3 °F 37.0 °F 100% 29.62 in 0.5 mi NNE 4.6 mph - 0.08 in Fog , Rain Light Rain
10:16 PM 37.9 °F 34.4 °F 37.0 °F 97% 29.60 in 0.8 mi NNE 4.6 mph - 0.04 in Rain Rain
10:51 PM 37.4 °F 32.8 °F 37.4 °F 100% 29.59 in 1.0 mi NNE 5.8 mph - 0.08 in Rain Light Rain
10:53 PM 37.9 °F 34.4 °F 37.0 °F 97% 29.60 in 1.0 mi NE 4.6 mph - 0.09 in Rain Light Rain
11:00 PM 37.9 °F 34.4 °F 37.0 °F 97% 29.58 in 2.0 mi NE 4.6 mph - 0.00 in Rain Light Rain
11:11 PM 37.0 °F 32.4 °F 36.0 °F 96% 29.57 in 1.2 mi North 5.8 mph - 0.01 in Rain Light Rain
11:25 PM 36.0 °F 30.3 °F 36.0 °F 100% 29.55 in 2.0 mi North 6.9 mph - 0.02 in Rain Light Rain
11:34 PM 36.0 °F 30.3 °F 36.0 °F 100% 29.54 in 7.0 mi North 6.9 mph - 0.03 in Rain Light Rain
11:39 PM 36.0 °F 29.6 °F 35.1 °F 97% 29.54 in 2.0 mi North 8.1 mph - 0.04 in Rain Light Rain
11:41 PM 36.0 °F 29.6 °F 35.1 °F 97% 29.54 in 1.2 mi North 8.1 mph - 0.04 in Rain Light Rain
11:49 PM 37.4 °F 32.8 °F 35.6 °F 93% 29.54 in 0.5 mi North 5.8 mph - 0.05 in Fog , Rain Light Rain
11:53 PM 36.0 °F 31.1 °F 36.0 °F 100% 29.55 in 0.5 mi North 5.8 mph - 0.06 in Fog , Rain Light Rain
11:58 PM 36.0 °F 30.3 °F 36.0 °F 100% 29.53 in 0.5 mi North 6.9 mph - 0.00 in Fog , Rain Light Rain